Content
SEND FEEDBACK

Daily
Averages
Monthly
Summary
Spain

MÁLAGA, SPAIN


Home > Europe > Spain
Elevation: 23 feet     Latitude: 36 40N     Longitude: 004 29W

WEATHER
 
SELECT A DAY
Number of Records: 318,294;   Date Range: 7/1/96 - 7/26/14
 
SHARE

PRINT THIS DATA

[ ← Previous Day ]
WEATHER ALMANAC - OCTOBER 29, 2013
[ Next Day → ]
[ °C ]   °F
Weather ElementAverageHighLow
Temperature68.9 °F73.4 °F (1:00 pm)64.4 °F (8:30 pm)
Dewpoint44.7 °F55.4 °F (12:30 am)32 °F (3:00 pm)
Humidity42.8 %68 % (9:30 am)21 % (1:00 pm)
Barometer30.02 in30.06 in (9:30 am)29.98 in (3:30 am)
Wind Speed18.5 mph25.3 mph (10:00 am)
Wind Gust39.1 mph (4:30 pm)
Weather ElementAverage
Visibility8 mi
Wind DirectionWNW (292.9 °)

Weather ElementTotal
Precipitation---
Cooling Degree Days3.9 (Base 65)
Growing Degree Days18.9 (Base 50)
Averaged from 51 records on October 29, 2013
WEATHER CONDITIONS BREAKOUT
WIND DIRECTION BREAKOUT
WEATHER BY HOUR - OCTOBER 29, 2013
[ °C ]   °F
Local TimeTemperatureDewpointHumidityBarometerVisibilityWind DirectionWind SpeedGust SpeedPrecipitationEventsConditions
12:30 AM71.6 °F55.4 °F57 %30.01 inWest (280°)16.1 mphClear
1:00 AM72.0 °F53.0 °F41 %30.02 in12.0 miWest (280°)16.1 mphClear
1:00 AM71.6 °F53.6 °F53 %30.01 inWest (280°)15.0 mphClear
1:30 AM71.6 °F50.0 °F46 %30.01 inWest (270°)15.0 mphClear
2:00 AM71.6 °F50.0 °F46 %30.01 inWest (280°)13.8 mphClear
2:30 AM71.6 °F48.2 °F43 %30.01 inWest (270°)18.4 mphClear
3:00 AM69.8 °F48.2 °F46 %30.01 inWest (270°)17.3 mphClear
3:30 AM69.8 °F48.2 °F46 %29.98 inWest (280°)17.3 mphClear
4:00 AM69.8 °F48.2 °F46 %29.98 inWest (280°)20.7 mphClear
4:30 AM69.8 °F48.2 °F46 %29.98 inWest (280°)19.6 mphClear
5:00 AM69.8 °F50.0 °F49 %29.98 inWest (280°)18.4 mphClear
5:30 AM68.0 °F50.0 °F52 %30.01 inWest (280°)19.6 mph32.2 mphClear
6:00 AM68.0 °F51.8 °F56 %30.01 inWNW (290°)18.4 mphClear
6:30 AM68.0 °F51.8 °F56 %30.01 inWNW (290°)19.6 mph31.1 mphClear
7:00 AM68.0 °F53.0 °F48 %30.02 in12.0 miWest (280°)21.9 mphClear
7:00 AM66.2 °F53.6 °F64 %30.01 inWNW (290°)21.9 mphClear
7:30 AM66.2 °F53.6 °F64 %30.01 in6.2 miWest (280°)20.7 mphPartly Cloudy
8:00 AM66.2 °F53.6 °F64 %30.01 in6.2 miWest (280°)17.3 mphPartly Cloudy
8:30 AM66.2 °F53.6 °F64 %30.04 in6.2 miWest (270°)20.7 mphPartly Cloudy
9:00 AM66.2 °F53.6 °F64 %30.04 in6.2 miWest (280°)21.9 mphPartly Cloudy
9:30 AM66.2 °F55.4 °F68 %30.06 in6.2 miWNW (290°)24.2 mph36.8 mphPartly Cloudy
10:00 AM68.0 °F55.4 °F64 %30.06 in6.2 miWNW (290°)25.3 mphPartly Cloudy
10:30 AM68.0 °F53.6 °F60 %30.06 in6.2 miWNW (290°)25.3 mph38.0 mphPartly Cloudy
11:00 AM68.0 °F51.8 °F56 %30.04 in6.2 miWNW (290°)24.2 mph35.7 mphPartly Cloudy
11:30 AM69.8 °F50.0 °F49 %30.04 in6.2 miWNW (300°)24.2 mph35.7 mphPartly Cloudy
12:00 PM71.6 °F48.2 °F43 %30.04 in6.2 miWNW (300°)21.9 mphPartly Cloudy
12:30 PM71.6 °F46.4 °F41 %30.04 in6.2 miWNW (290°)21.9 mph33.4 mphPartly Cloudy
1:00 PM73.0 °F41.0 °F21 %30.03 in25.0 miNW (310°)18.4 mphScattered Clouds
1:00 PM73.4 °F41.0 °F31 %30.04 inNW (310°)18.4 mph31.1 mphClear
1:30 PM73.4 °F39.2 °F29 %30.01 inNW (310°)15.0 mphClear
2:00 PM73.4 °F35.6 °F25 %30.01 inWNW (300°)15.0 mph27.6 mphClear
2:30 PM73.4 °F33.8 °F23 %30.01 inNW (310°)16.1 mph27.6 mphClear
3:00 PM73.4 °F32.0 °F22 %30.01 inNW (320°)17.3 mphClear
3:30 PM73.4 °F32.0 °F22 %29.98 inNW (320°)17.3 mph29.9 mphClear
4:00 PM71.6 °F33.8 °F25 %29.98 inNW (310°)18.4 mphClear
4:30 PM71.6 °F33.8 °F25 %30.01 inNW (310°)20.7 mph39.1 mphClear
5:00 PM71.6 °F35.6 °F27 %30.01 inNW (310°)15.0 mphClear
5:30 PM69.8 °F33.8 °F27 %29.98 in6.2 miNW (320°)19.6 mph35.7 mphPartly Cloudy
6:00 PM68.0 °F35.6 °F30 %30.01 in6.2 miNW (310°)17.3 mph29.9 mphPartly Cloudy
6:30 PM66.2 °F37.4 °F35 %30.01 in6.2 miWNW (300°)23.0 mphPartly Cloudy
7:00 PM68.0 °F38.0 °F23 %30.03 in25.0 miWNW (290°)16.1 mphScattered Clouds
7:00 PM66.2 °F39.2 °F37 %30.01 in6.2 miWNW (300°)15.0 mphPartly Cloudy
7:30 PM66.2 °F41.0 °F40 %30.04 in6.2 miWNW (300°)16.1 mphPartly Cloudy
8:00 PM66.2 °F41.0 °F40 %30.04 in6.2 miWNW (300°)17.3 mphPartly Cloudy
8:30 PM64.4 °F41.0 °F42 %30.04 in6.2 miWNW (300°)15.0 mphPartly Cloudy
9:00 PM64.4 °F39.2 °F40 %30.04 in6.2 miWNW (290°)16.1 mphPartly Cloudy
9:30 PM64.4 °F39.2 °F40 %30.04 in6.2 miWest (280°)18.4 mphPartly Cloudy
10:00 PM64.4 °F41.0 °F42 %30.04 in6.2 miWNW (290°)17.3 mphPartly Cloudy
10:30 PM64.4 °F39.2 °F40 %30.06 in6.2 miWNW (290°)18.4 mphPartly Cloudy
11:00 PM64.4 °F35.6 °F34 %30.06 in6.2 miNW (310°)13.8 mph26.5 mphPartly Cloudy
11:30 PM64.4 °F33.8 °F32 %30.06 in6.2 miNW (310°)12.7 mph25.3 mphPartly Cloudy
Hourly data recorded from LEMG, located miles away from Málaga, Spain







STORIES FROM OUR PARTNERS